PLT2211 SBPV-SBEG

Flight info

Callsign PLT2211
Flight time N/A
Altitude 35000
Route MUPEG UZ74 IGAPO
Aircraft A320/M-SDE3FGHIRWY/LB1

Departure

Time N/A
Airport Governador Jorge Teixeira de Oliveira International Airport (SBPV)

Arrival

Time 2026-04-24 19:32
Airport Eduardo Gomes International Airport (SBEG)
Time Latitude Longitude Altitude Speed Heading
2026-04-24 18:54 -6.21731 -62.23105 36904 ft 456 kts 36°
2026-04-24 18:55 -6.13770 -62.17848 36921 ft 456 kts 36°
2026-04-24 18:56 -6.08508 -62.14367 36921 ft 455 kts 36°
2026-04-24 18:56 -6.03211 -62.10865 36918 ft 455 kts 36°
2026-04-24 18:57 -5.97916 -62.07369 36913 ft 455 kts 36°
2026-04-24 18:57 -5.92623 -62.03878 36923 ft 455 kts 36°
2026-04-24 18:58 -5.87365 -62.00406 36906 ft 455 kts 36°
2026-04-24 18:58 -5.82071 -61.96910 36910 ft 455 kts 36°
2026-04-24 18:59 -5.76777 -61.93417 36911 ft 455 kts 36°
2026-04-24 18:59 -5.71503 -61.89943 36913 ft 455 kts 36°
2026-04-24 19:00 -5.66221 -61.86456 36913 ft 454 kts 36°
2026-04-24 19:00 -5.60945 -61.82974 36921 ft 453 kts 35°
2026-04-24 19:01 -5.55402 -61.79918 36909 ft 455 kts 31°
2026-04-24 19:01 -5.49812 -61.76922 36911 ft 455 kts 31°
2026-04-24 19:02 -5.45172 -61.74429 36906 ft 455 kts 31°
2026-04-24 19:02 -5.38654 -61.70929 36903 ft 454 kts 31°
2026-04-24 19:03 -5.33075 -61.67941 36906 ft 454 kts 31°
2026-04-24 19:03 -5.27494 -61.64957 36909 ft 454 kts 31°
2026-04-24 19:04 -5.21949 -61.61989 36914 ft 454 kts 31°
2026-04-24 19:04 -5.16375 -61.58998 36913 ft 454 kts 31°
2026-04-24 19:05 -5.10804 -61.56009 36915 ft 454 kts 31°
2026-04-24 19:05 -5.05219 -61.53021 36912 ft 454 kts 31°
2026-04-24 19:06 -4.99680 -61.50055 36919 ft 454 kts 31°
2026-04-24 19:06 -4.94111 -61.47067 36912 ft 454 kts 31°
2026-04-24 19:07 -4.88527 -61.44073 36911 ft 454 kts 31°
2026-04-24 19:07 -4.83887 -61.41592 36754 ft 456 kts 31°
2026-04-24 19:07 -4.80175 -61.39611 36366 ft 446 kts 31°
2026-04-24 19:08 -4.77442 -61.38152 36127 ft 443 kts 31°
2026-04-24 19:08 -4.74727 -61.36696 35880 ft 443 kts 31°
2026-04-24 19:08 -4.72040 -61.35257 35649 ft 443 kts 31°
2026-04-24 19:08 -4.69316 -61.33805 35411 ft 444 kts 31°
2026-04-24 19:09 -4.66587 -61.32353 35182 ft 445 kts 31°
2026-04-24 19:09 -4.63847 -61.30894 34948 ft 445 kts 31°
2026-04-24 19:09 -4.61112 -61.29433 34718 ft 446 kts 31°
2026-04-24 19:09 -4.58374 -61.27958 34489 ft 447 kts 31°
2026-04-24 19:10 -4.55668 -61.26407 34261 ft 447 kts 33°
2026-04-24 19:10 -4.53021 -61.24777 34037 ft 448 kts 34°
2026-04-24 19:10 -4.50408 -61.23099 33807 ft 454 kts 35°
2026-04-24 19:10 -4.47739 -61.21362 33549 ft 457 kts 35°
2026-04-24 19:11 -4.45060 -61.19623 33292 ft 459 kts 35°
2026-04-24 19:11 -4.42370 -61.17896 33032 ft 460 kts 34°
2026-04-24 19:11 -4.39656 -61.16177 32809 ft 461 kts 34°
2026-04-24 19:11 -4.36927 -61.14468 32547 ft 462 kts 34°
2026-04-24 19:12 -4.34192 -61.12764 32300 ft 463 kts 34°
2026-04-24 19:12 -4.31460 -61.11062 32059 ft 461 kts 34°
2026-04-24 19:12 -4.28739 -61.09367 31819 ft 460 kts 34°
2026-04-24 19:12 -4.26034 -61.07678 31416 ft 456 kts 34°
2026-04-24 19:13 -4.24258 -61.06565 31023 ft 454 kts 34°
2026-04-24 19:13 -4.20720 -61.04339 30268 ft 451 kts 34°
2026-04-24 19:13 -4.18070 -61.02672 29645 ft 449 kts 34°
2026-04-24 19:13 -4.15427 -61.01013 29062 ft 444 kts 34°
2026-04-24 19:14 -4.12823 -60.99382 28488 ft 440 kts 34°
2026-04-24 19:14 -4.10237 -60.97767 27939 ft 436 kts 34°
2026-04-24 19:14 -4.07673 -60.96164 27387 ft 432 kts 34°
2026-04-24 19:14 -4.05131 -60.94571 26830 ft 428 kts 34°
2026-04-24 19:15 -4.02620 -60.92994 26289 ft 425 kts 34°
2026-04-24 19:15 -4.00161 -60.91446 25766 ft 421 kts 34°
2026-04-24 19:15 -3.97690 -60.89893 25230 ft 418 kts 33°
2026-04-24 19:15 -3.95227 -60.88346 24738 ft 415 kts 33°
2026-04-24 19:16 -3.90362 -60.85297 23780 ft 410 kts 33°
2026-04-24 19:16 -3.87948 -60.83787 23259 ft 408 kts 33°
2026-04-24 19:16 -3.85550 -60.82283 22776 ft 404 kts 33°
2026-04-24 19:17 -3.83176 -60.80793 22299 ft 401 kts 33°
2026-04-24 19:17 -3.80815 -60.79310 21833 ft 399 kts 33°
2026-04-24 19:17 -3.78472 -60.77839 21369 ft 396 kts 33°
2026-04-24 19:17 -3.76140 -60.76378 20877 ft 395 kts 33°
2026-04-24 19:18 -3.73844 -60.74943 20399 ft 393 kts 33°
2026-04-24 19:18 -3.71531 -60.73497 19885 ft 392 kts 33°
2026-04-24 19:18 -3.69217 -60.72051 19375 ft 391 kts 33°
2026-04-24 19:18 -3.66913 -60.70613 18849 ft 390 kts 33°
2026-04-24 19:19 -3.64614 -60.69179 18324 ft 389 kts 33°
2026-04-24 19:19 -3.62317 -60.67743 17742 ft 388 kts 33°
2026-04-24 19:19 -3.60033 -60.66313 17208 ft 385 kts 33°
2026-04-24 19:19 -3.57768 -60.64894 16677 ft 382 kts 33°
2026-04-24 19:20 -3.55528 -60.63491 16156 ft 379 kts 33°
2026-04-24 19:20 -3.53303 -60.62096 15629 ft 376 kts 33°
2026-04-24 19:20 -3.51118 -60.60731 15114 ft 373 kts 32°
2026-04-24 19:20 -3.48923 -60.59362 14590 ft 370 kts 32°
2026-04-24 19:21 -3.46743 -60.58001 14069 ft 368 kts 32°
2026-04-24 19:21 -3.44576 -60.56648 13531 ft 366 kts 32°
2026-04-24 19:21 -3.42425 -60.55304 12987 ft 363 kts 32°
2026-04-24 19:21 -3.40293 -60.53971 12472 ft 359 kts 32°
2026-04-24 19:22 -3.38895 -60.53098 12135 ft 356 kts 32°
2026-04-24 19:22 -3.36105 -60.51357 11467 ft 352 kts 32°
2026-04-24 19:22 -3.34033 -60.50066 10966 ft 349 kts 32°
2026-04-24 19:22 -3.31978 -60.48782 10477 ft 346 kts 32°
2026-04-24 19:23 -3.29974 -60.47526 10198 ft 329 kts 32°
2026-04-24 19:23 -3.28128 -60.46370 10079 ft 305 kts 32°
2026-04-24 19:23 -3.26364 -60.45268 9661 ft 294 kts 32°
2026-04-24 19:23 -3.24660 -60.44203 9455 ft 287 kts 32°
2026-04-24 19:24 -3.22962 -60.43141 9235 ft 289 kts 32°
2026-04-24 19:24 -3.21268 -60.42083 8908 ft 283 kts 32°
2026-04-24 19:24 -3.19592 -60.41036 8890 ft 285 kts 32°
2026-04-24 19:24 -3.17896 -60.39978 8767 ft 288 kts 32°
2026-04-24 19:25 -3.16192 -60.38915 8396 ft 288 kts 32°
2026-04-24 19:25 -3.14518 -60.37871 8063 ft 287 kts 32°
2026-04-24 19:25 -3.12826 -60.36815 7719 ft 286 kts 32°
2026-04-24 19:25 -3.11120 -60.35747 7071 ft 296 kts 32°
2026-04-24 19:26 -3.09337 -60.34632 6328 ft 308 kts 32°
2026-04-24 19:26 -3.07487 -60.33476 5580 ft 318 kts 32°
2026-04-24 19:26 -3.05630 -60.32314 5314 ft 309 kts 33°
2026-04-24 19:26 -3.04134 -60.30891 5038 ft 291 kts 57°
2026-04-24 19:27 -3.03586 -60.28993 4527 ft 284 kts 90°
2026-04-24 19:27 -3.03737 -60.27097 4164 ft 269 kts 93°
2026-04-24 19:27 -3.03820 -60.25321 3833 ft 244 kts 89°
2026-04-24 19:27 -3.03825 -60.23704 3536 ft 221 kts 88°
2026-04-24 19:28 -3.03823 -60.22240 3263 ft 200 kts 88°
2026-04-24 19:28 -3.03825 -60.20911 3050 ft 182 kts 88°
2026-04-24 19:28 -3.03827 -60.19690 2795 ft 170 kts 89°
2026-04-24 19:28 -3.03830 -60.18557 2579 ft 156 kts 88°
2026-04-24 19:29 -3.03834 -60.16448 2197 ft 148 kts 89°
2026-04-24 19:29 -3.03836 -60.15429 2014 ft 147 kts 89°
2026-04-24 19:29 -3.03838 -60.14409 1824 ft 146 kts 89°
2026-04-24 19:30 -3.03840 -60.13392 1639 ft 146 kts 89°
2026-04-24 19:30 -3.03843 -60.12381 1431 ft 146 kts 90°
2026-04-24 19:30 -3.03845 -60.11364 1261 ft 145 kts 90°
2026-04-24 19:30 -3.03847 -60.10348 1072 ft 147 kts 90°
2026-04-24 19:31 -3.03849 -60.09317 895 ft 149 kts 90°
2026-04-24 19:31 -3.03852 -60.08271 711 ft 151 kts 90°
2026-04-24 19:31 -3.03855 -60.07209 527 ft 154 kts 90°
2026-04-24 19:31 -3.03855 -60.06140 338 ft 154 kts 90°
2026-04-24 19:32 -3.03861 -60.05165 297 ft 121 kts 90°
2026-04-24 19:32 -3.03863 -60.04493 300 ft 72 kts 90°
2026-04-24 19:32 -3.03861 -60.04144 301 ft 46 kts 90°
2026-04-24 19:32 -3.03861 -60.03948 301 ft 13 kts 89°
2026-04-24 19:33 -3.03860 -60.03847 301 ft 16 kts 90°
2026-04-24 19:33 -3.03798 -60.03767 303 ft 17 kts 17°
2026-04-24 19:33 -3.03694 -60.03814 304 ft 18 kts 306°
2026-04-24 19:33 -3.03656 -60.03945 303 ft 21 kts 284°
2026-04-24 19:34 -3.03617 -60.04089 302 ft 22 kts 286°
2026-04-24 19:34 -3.03578 -60.04225 303 ft 18 kts 293°
2026-04-24 19:34 -3.03499 -60.04323 301 ft 19 kts 326°
2026-04-24 19:34 -3.03386 -60.04378 301 ft 14 kts 343°
2026-04-24 19:35 -3.03331 -60.04419 300 ft 10 kts 275°
2026-04-24 19:35 -3.03345 -60.04494 300 ft 11 kts 258°
2026-04-24 19:35 -3.03336 -60.04541 303 ft 6 kts 349°
2026-04-24 19:35 -3.03289 -60.04540 299 ft 7 kts 359°
2026-04-24 19:36 -3.03270 -60.04541 299 ft 0 kts 357°